Terminal Aerodrome Forecast
Issued by NWS

Home | Current Version | Previous Version | Text Only | Print | Product List | Glossary On
Versions: 1 2 3 4 5 6 7 8 9 10 11 12 13 14 15 16 17 18 19 20 21 22 23 24
000
FTUS45 KGJT 192330
TAFVEL
TAF
KVEL 192330Z 2000/2024 23003KT P6SM FEW120 BKN200
     FM200200 33005KT P6SM SCT200
     FM201400 VRB03KT P6SM FEW150=

USA.gov is the U.S. government's official web portal to all federal, state and local government web resources and services.